#timestamp,LO_Frequency,Hit,StdDev 
1541793615.4,286046992.2,N
1541793635.2,286046990.3,N
1541793655.1,286046991.3,N
1541793656.0,286046991.3,N
1541793675.8,286046989.3,N
1541793695.6,286046987.0,N
1541793715.5,286046989.2,N
1541793735.3,286046989.0,N
1541793755.2,286046989.8,N
1541793775.9,286046988.4,N
1541793795.7,286046986.5,N
1541793815.6,286046984.9,N
1541793835.4,286046982.9,Y
1541793855.2,286046987.7,P
1541793875.1,286046987.6,P
1541793876.0,286046987.6,P
1541793895.8,286046988.1,Y
1541793915.7,286046996.9,P
1541793935.5,286046999.5,N
1541793955.3,286046999.5,N
1541793975.2,286046997.2,N
1541793995.0,286046998.0,N
1541793995.9,286046998.0,N
1541794015.8,286046997.2,N
1541794035.6,286046995.4,N
1541794055.4,286046996.0,N
1541794075.3,286046993.9,N
1541794095.1,286046993.3,N
1541794096.0,286046993.3,N
1541794115.8,286046996.1,N
1541794135.7,286046996.4,N
1541794155.5,286046993.6,N
1541794175.4,286046991.7,Y
1541794195.2,286046999.5,P
1541794215.0,286046997.3,N
1541794215.9,286046997.3,N
1541794235.8,286046997.1,N
1541794255.6,286046999.6,N
1541794275.4,286046999.1,N
1541794295.3,286046999.4,N
1541794315.1,286047000.0,N
1541794335.9,286047000.0,N
1541794355.7,286047000.3,N
1541794375.5,286046999.8,N
1541794395.4,286046999.9,N
1541794415.2,286047000.4,N
1541794435.0,286047000.0,N
1541794436.0,286047000.0,N
1541794455.8,286047000.2,N
1541794475.6,286047000.5,N
1541794495.5,286046999.8,N
1541794515.3,286047000.1,N
1541794535.1,286046999.7,N
1541794555.9,286047002.0,N
1541794575.7,286047000.3,N
1541794595.6,286047000.0,N
1541794615.4,286047000.6,N
1541794635.2,286046998.5,N
1541794655.1,286047000.0,N
1541794656.0,286047000.0,N
1541794675.8,286047002.5,N
1541794695.6,286047002.8,N
1541794715.5,286047002.7,N
1541794735.3,286047001.0,N
1541794755.2,286047001.0,N
1541794775.9,286047000.7,N
1541794795.7,286046998.2,N
1541794815.6,286046998.6,N
1541794835.4,286046998.9,N
1541794855.2,286046998.8,N
1541794875.1,286046999.6,N
1541794876.0,286046999.6,N
1541794895.8,286046999.1,N
1541794915.7,286046999.5,N
1541794935.5,286046996.7,N
1541794955.3,286047001.2,N
1541794975.2,286047000.6,N
1541794995.0,286047000.6,N
1541794995.9,286047000.6,N
1541795015.7,286046999.9,N
1541795035.6,286047000.8,N
1541795055.4,286047002.2,N
1541795075.3,286047001.3,N
1541795095.1,286047002.1,N
1541795096.0,286047002.1,N
1541795115.8,286047001.5,N
1541795135.7,286047001.5,N
1541795155.5,286047002.5,N
1541795175.3,286047001.7,N
1541795195.2,286047004.2,N
1541795215.0,286047001.8,N
1541795215.9,286047001.8,N
1541795235.8,286047003.8,N
1541795255.6,286047004.5,N
1541795275.4,286047004.5,N
1541795295.3,286047003.6,N
1541795315.1,286047004.2,N
1541795335.8,286047004.1,N
1541795355.7,286047003.6,N
1541795375.5,286047005.5,N
1541795395.4,286047005.1,N
1541795415.2,286047004.9,N
1541795435.0,286047006.9,Y
1541795435.9,286047006.9,P
1541795455.8,286047005.8,N
1541795475.6,286047003.4,N
1541795495.5,286047004.7,N
1541795515.3,286047004.9,N
1541795535.1,286047005.3,Y
1541795555.9,286046999.9,P
1541795575.7,286047000.3,N
1541795595.5,286047000.9,N
1541795615.4,286046999.8,N
1541795635.2,286047001.5,N
1541795655.1,286047002.7,N
1541795656.0,286047002.7,N
1541795675.8,286047004.1,N
1541795695.6,286047003.1,N
1541795715.5,286047003.1,N
1541795735.3,286047005.5,Y
1541795755.1,286047001.5,P
1541795775.9,286047005.6,P
1541795795.7,286047003.6,N
1541795815.6,286047003.7,N
1541795835.4,286047005.4,Y
1541795855.2,286047002.4,P
1541795875.1,286047002.2,P
1541795876.0,286047002.2,P
1541795895.8,286047001.9,Y
1541795915.6,286047002.7,P
1541795935.5,286047002.7,P
1541795955.3,286047002.4,P
1541795975.2,286047002.2,Y
1541795995.9,286046998.8,P
1541796015.7,286046999.5,N
1541796035.6,286046999.1,N
1541796055.4,286046996.6,N
1541796075.2,286046999.4,N
1541796095.1,286046996.5,N
1541796096.0,286046996.5,N
1541796115.8,286046995.5,N
1541796135.7,286046995.1,N
1541796155.5,286046995.5,N
1541796175.3,286046995.5,N
1541796195.2,286046994.9,N
1541796215.9,286046994.9,N
1541796235.7,286046996.7,N
1541796255.6,286046999.2,N
1541796275.4,286046996.5,N
1541796295.2,286046999.0,N
1541796315.1,286046997.5,N
1541796316.0,286046997.5,N
1541796335.8,286046997.1,N
1541796355.7,286046997.4,N
1541796375.5,286046998.0,N
1541796395.3,286046999.6,N
1541796415.2,286046996.5,N
1541796435.0,286046999.3,N
1541796435.9,286046999.3,N
1541796455.7,286047000.9,N
1541796475.6,286046998.8,N
1541796495.4,286046998.5,N
1541796515.3,286047000.6,N
1541796535.1,286046998.8,N
1541796536.0,286046998.8,N
1541796555.8,286046999.4,N
1541796575.7,286046997.3,N
1541796595.5,286046996.6,N
1541796615.3,286046995.1,N
1541796635.2,286046996.3,N
1541796655.0,286046996.4,N
1541796655.9,286046996.4,N
1541796675.8,286046994.5,Y
1541796695.6,286046997.9,P
1541796715.4,286046998.7,P
1541796735.3,286046998.8,N
1541796755.1,286046999.4,N
1541796775.8,286046996.7,Y
1541796795.7,286047002.8,P
1541796815.5,286047001.0,N
1541796835.4,286046998.6,N
1541796855.2,286046998.6,N
1541796875.0,286046999.7,N
1541796875.9,286046999.7,N
1541796895.8,286047002.2,N
1541796915.6,286047002.4,N
1541796935.4,286046999.9,N
1541796955.3,286047002.3,N
1541796975.1,286047003.9,N
1541796995.9,286047002.1,N
1541797015.7,286047002.3,N
1541797035.5,286047000.2,N
1541797055.4,286046997.2,N
1541797075.2,286046995.7,N
1541797095.0,286046995.5,N
1541797095.9,286046995.5,N
1541797115.8,286046995.5,N
1541797135.6,286046996.2,N
1541797155.4,286046993.7,N
1541797175.3,286046993.6,N
1541797195.1,286046994.1,N
